| time (UTC) | temp F | wind direction | speed MPH | gust MPH | rain 1hr in | rain 24hr in | rain mn in | humidity % | barometer mb |
| 20260506114308 | 54 | 45 | 0.0 | 1.0 | 0.00 | 0.00 | 0.00 | 1 | 929.3 |
| 20260506114109 | 54 | 45 | 0.0 | 2.0 | 0.00 | 0.00 | 0.00 | 1 | 929.1 |
| 20260506113909 | 54 | 0 | 0.0 | 2.0 | 0.00 | 0.00 | 0.00 | 1 | 929.1 |
| 20260506113708 | 54 | 45 | 0.0 | 2.0 | 0.00 | 0.00 | 0.00 | 1 | 929.0 |
| 20260506113510 | 54 | 45 | 0.0 | 2.0 | 0.00 | 0.00 | 0.00 | 1 | 929.0 |
| 20260506113308 | 54 | 45 | 0.0 | 3.0 | 0.00 | 0.00 | 0.00 | 1 | 929.0 |
| 20260506113108 | 53 | 90 | 0.0 | 3.0 | 0.00 | 0.00 | 0.00 | 1 | 929.0 |
| 20260506112908 | 53 | 90 | 0.0 | 3.0 | 0.00 | 0.00 | 0.00 | 1 | 928.9 |
| 20260506112708 | 53 | 45 | 0.0 | 3.0 | 0.00 | 0.00 | 0.00 | 1 | 928.8 |
| 20260506112509 | 53 | 135 | 0.0 | 3.0 | 0.00 | 0.00 | 0.00 | 1 | 928.8 |
| 20260506112308 | 53 | 90 | 0.0 | 2.0 | 0.00 | 0.00 | 0.00 | 1 | 928.7 |
| 20260506112108 | 53 | 45 | 0.0 | 2.0 | 0.00 | 0.00 | 0.00 | 1 | 928.7 |
| 20260506111909 | 53 | 45 | 0.0 | 2.0 | 0.00 | 0.00 | 0.00 | 1 | 928.6 |
| 20260506111510 | 53 | 90 | 0.0 | 2.0 | 0.00 | 0.00 | 0.00 | 1 | 928.6 |
| 20260506111308 | 53 | 90 | 0.0 | 2.0 | 0.00 | 0.00 | 0.00 | 1 | 928.6 |
| 20260506111108 | 53 | 135 | 0.0 | 2.0 | 0.00 | 0.00 | 0.00 | 1 | 928.5 |
| 20260506110908 | 53 | 90 | 0.0 | 2.0 | 0.00 | 0.00 | 0.00 | 1 | 928.5 |
| 20260506110708 | 52 | 135 | 0.0 | 2.0 | 0.00 | 0.00 | 0.00 | 1 | 928.5 |
| 20260506110509 | 52 | 90 | 0.0 | 2.0 | 0.00 | 0.00 | 0.00 | 1 | 928.6 |
| 20260506110308 | 53 | 90 | 0.0 | 1.0 | 0.00 | 0.00 | 0.00 | 1 | 928.5 |
| 20260506110108 | 53 | 90 | 0.0 | 1.0 | 0.00 | 0.00 | 0.00 | 1 | 928.5 |
| 20260506105908 | 53 | 225 | 0.0 | 1.0 | 0.00 | 0.00 | 0.00 | 1 | 928.4 |
| 20260506105709 | 53 | 135 | 0.0 | 1.0 | 0.00 | 0.00 | 0.00 | 1 | 928.3 |
| 20260506105509 | 53 | 90 | 0.0 | 1.0 | 0.00 | 0.00 | 0.00 | 1 | 928.2 |
| 20260506105308 | 53 | 90 | 0.0 | 1.0 | 0.00 | 0.00 | 0.00 | 1 | 928.1 |
| 20260506105108 | 54 | 45 | 0.0 | 1.0 | 0.00 | 0.00 | 0.00 | 1 | 928.1 |
| 20260506104908 | 54 | 225 | 0.0 | 1.0 | 0.00 | 0.00 | 0.00 | 1 | 928.1 |
| 20260506104708 | 54 | 90 | 0.0 | 1.0 | 0.00 | 0.00 | 0.00 | 1 | 928.0 |
| 20260506104509 | 53 | 45 | 0.0 | 1.0 | 0.00 | 0.00 | 0.00 | 1 | 928.0 |
| 20260506104308 | 54 | 90 | 0.0 | 2.0 | 0.00 | 0.00 | 0.00 | 1 | 928.0 |
| 20260506104108 | 54 | 45 | 0.0 | 2.0 | 0.00 | 0.00 | 0.00 | 1 | 928.0 |
| 20260506103908 | 53 | 90 | 0.0 | 2.0 | 0.00 | 0.00 | 0.00 | 1 | 928.0 |
| 20260506103708 | 53 | 135 | 0.0 | 2.0 | 0.00 | 0.00 | 0.00 | 1 | 928.1 |
| 20260506103509 | 53 | 90 | 0.0 | 2.0 | 0.00 | 0.00 | 0.00 | 1 | 928.0 |
| 20260506103308 | 53 | 90 | 0.0 | 2.0 | 0.00 | 0.00 | 0.00 | 1 | 927.9 |
| 20260506103108 | 53 | 90 | 0.0 | 2.0 | 0.00 | 0.00 | 0.00 | 1 | 927.9 |
| 20260506102908 | 53 | 45 | 0.0 | 2.0 | 0.00 | 0.00 | 0.00 | 1 | 927.9 |
| 20260506102708 | 53 | 135 | 0.0 | 2.0 | 0.00 | 0.00 | 0.00 | 1 | 927.8 |
| 20260506102509 | 53 | 135 | 0.0 | 2.0 | 0.00 | 0.00 | 0.00 | 1 | 927.8 |
| 20260506102308 | 53 | 135 | 0.0 | 1.0 | 0.00 | 0.00 | 0.00 | 1 | 927.8 |
| 20260506102108 | 53 | 45 | 0.0 | 1.0 | 0.00 | 0.00 | 0.00 | 1 | 927.8 |
| 20260506101908 | 53 | 135 | 0.0 | 1.0 | 0.00 | 0.00 | 0.00 | 1 | 927.9 |
| 20260506101708 | 53 | 90 | 0.0 | 1.0 | 0.00 | 0.00 | 0.00 | 1 | 927.8 |
| 20260506101510 | 53 | 135 | 0.0 | 1.0 | 0.00 | 0.00 | 0.00 | 1 | 927.7 |
| 20260506101309 | 53 | 135 | 0.0 | 1.0 | 0.00 | 0.00 | 0.00 | 1 | 927.8 |
| 20260506101108 | 53 | 135 | 0.0 | 1.0 | 0.00 | 0.00 | 0.00 | 1 | 927.7 |
| 20260506100908 | 53 | 0 | 0.0 | 0.0 | 0.00 | 0.00 | 0.00 | 1 | 927.7 |
| 20260506100708 | 53 | 90 | 0.0 | 1.0 | 0.00 | 0.00 | 0.00 | 1 | 927.7 |
| 20260506100309 | 53 | 135 | 0.0 | 1.0 | 0.00 | 0.00 | 0.00 | 1 | 927.5 |
| 20260506100108 | 53 | 135 | 0.0 | 1.0 | 0.00 | 0.00 | 0.00 | 1 | 927.4 |
| 20260506095908 | 53 | 90 | 0.0 | 1.0 | 0.00 | 0.00 | 0.00 | 1 | 927.4 |
| 20260506095708 | 53 | 90 | 0.0 | 1.0 | 0.00 | 0.00 | 0.00 | 1 | 927.4 |
| 20260506095309 | 53 | 0 | 0.0 | 1.0 | 0.00 | 0.00 | 0.00 | 1 | 927.3 |
| 20260506095109 | 53 | 45 | 0.0 | 1.0 | 0.00 | 0.00 | 0.00 | 1 | 927.3 |
| 20260506094908 | 53 | 0 | 0.0 | 1.0 | 0.00 | 0.00 | 0.00 | 1 | 927.3 |
| 20260506094708 | 53 | 0 | 0.0 | 1.0 | 0.00 | 0.00 | 0.00 | 1 | 927.3 |
| 20260506094510 | 53 | 90 | 0.0 | 2.0 | 0.00 | 0.00 | 0.00 | 1 | 927.3 |
| 20260506094308 | 53 | 90 | 0.0 | 2.0 | 0.00 | 0.00 | 0.00 | 1 | 927.3 |
| 20260506094108 | 53 | 90 | 0.0 | 2.0 | 0.00 | 0.00 | 0.00 | 1 | 927.2 |
| 20260506093908 | 52 | 90 | 0.0 | 2.0 | 0.00 | 0.00 | 0.00 | 1 | 927.2 |
| 20260506093708 | 53 | 135 | 0.0 | 2.0 | 0.00 | 0.00 | 0.00 | 1 | 927.2 |
| 20260506093510 | 52 | 90 | 0.0 | 2.0 | 0.00 | 0.00 | 0.00 | 1 | 927.2 |
| 20260506093308 | 52 | 45 | 0.0 | 2.0 | 0.00 | 0.00 | 0.00 | 1 | 927.2 |
| 20260506093109 | 52 | 135 | 0.0 | 2.0 | 0.00 | 0.00 | 0.00 | 1 | 927.1 |
| 20260506092909 | 52 | 45 | 0.0 | 2.0 | 0.00 | 0.00 | 0.00 | 1 | 927.2 |
| 20260506092708 | 52 | 90 | 0.0 | 2.0 | 0.00 | 0.00 | 0.00 | 1 | 927.2 |
| 20260506092510 | 51 | 90 | 0.0 | 2.0 | 0.00 | 0.00 | 0.00 | 1 | 927.2 |
| 20260506092308 | 52 | 135 | 0.0 | 2.0 | 0.00 | 0.00 | 0.00 | 1 | 927.2 |
| 20260506092108 | 52 | 135 | 0.0 | 2.0 | 0.00 | 0.00 | 0.00 | 1 | 927.2 |
| 20260506091908 | 52 | 90 | 0.0 | 2.0 | 0.00 | 0.00 | 0.00 | 1 | 927.1 |
| 20260506091708 | 52 | 90 | 0.0 | 1.0 | 0.00 | 0.00 | 0.00 | 1 | 927.2 |
| 20260506091510 | 52 | 90 | 0.0 | 2.0 | 0.00 | 0.00 | 0.00 | 1 | 927.2 |
| 20260506091308 | 52 | 90 | 0.0 | 2.0 | 0.00 | 0.00 | 0.00 | 1 | 927.2 |
| 20260506091108 | 52 | 90 | 0.0 | 2.0 | 0.00 | 0.00 | 0.00 | 1 | 927.2 |
| 20260506090909 | 52 | 90 | 0.0 | 2.0 | 0.00 | 0.00 | 0.00 | 1 | 927.3 |
| 20260506090709 | 51 | 90 | 0.0 | 2.0 | 0.00 | 0.00 | 0.00 | 1 | 927.1 |
| 20260506090510 | 52 | 45 | 0.0 | 2.0 | 0.00 | 0.00 | 0.00 | 1 | 927.3 |
| 20260506090308 | 51 | 0 | 0.0 | 2.0 | 0.00 | 0.00 | 0.00 | 1 | 927.2 |
| 20260506090108 | 51 | 90 | 0.0 | 2.0 | 0.00 | 0.00 | 0.00 | 1 | 927.2 |
| 20260506085908 | 52 | 90 | 0.0 | 2.0 | 0.00 | 0.00 | 0.00 | 1 | 927.2 |
| 20260506085708 | 52 | 90 | 0.0 | 2.0 | 0.00 | 0.00 | 0.00 | 1 | 927.1 |
| 20260506085510 | 52 | 90 | 0.0 | 1.0 | 0.00 | 0.00 | 0.00 | 1 | 927.1 |
| 20260506085308 | 52 | 90 | 0.0 | 1.0 | 0.00 | 0.00 | 0.00 | 1 | 927.1 |
| 20260506085108 | 52 | 90 | 0.0 | 1.0 | 0.00 | 0.00 | 0.00 | 1 | 927.0 |
| 20260506084908 | 53 | 45 | 0.0 | 0.0 | 0.00 | 0.00 | 0.00 | 1 | 927.0 |
| 20260506084709 | 52 | 45 | 0.0 | 1.0 | 0.00 | 0.00 | 0.00 | 1 | 927.0 |
| 20260506084510 | 52 | 90 | 0.0 | 1.0 | 0.00 | 0.00 | 0.00 | 1 | 927.1 |
| 20260506084308 | 52 | 90 | 0.0 | 1.0 | 0.00 | 0.00 | 0.00 | 1 | 927.0 |
| 20260506084108 | 52 | 90 | 0.0 | 1.0 | 0.00 | 0.00 | 0.00 | 1 | 927.1 |
| 20260506083908 | 52 | 90 | 0.0 | 1.0 | 0.00 | 0.00 | 0.00 | 1 | 927.0 |
| 20260506083708 | 52 | 135 | 0.0 | 1.0 | 0.00 | 0.00 | 0.00 | 1 | 927.0 |
| 20260506083510 | 52 | 90 | 0.0 | 1.0 | 0.00 | 0.00 | 0.00 | 1 | 927.0 |
| 20260506083308 | 53 | 90 | 0.0 | 1.0 | 0.00 | 0.00 | 0.00 | 1 | 926.9 |
| 20260506083108 | 52 | 90 | 0.0 | 1.0 | 0.00 | 0.00 | 0.00 | 1 | 926.9 |
| 20260506082908 | 52 | 45 | 0.0 | 1.0 | 0.00 | 0.00 | 0.00 | 1 | 926.9 |
| 20260506082709 | 52 | 135 | 0.0 | 1.0 | 0.00 | 0.00 | 0.00 | 1 | 926.8 |
| 20260506082510 | 52 | 90 | 0.0 | 1.0 | 0.00 | 0.00 | 0.00 | 1 | 926.8 |
| 20260506082308 | 52 | 45 | 0.0 | 1.0 | 0.00 | 0.00 | 0.00 | 1 | 926.7 |
| 20260506082108 | 52 | 90 | 0.0 | 1.0 | 0.00 | 0.00 | 0.00 | 1 | 926.7 |
| 20260506081908 | 52 | 90 | 0.0 | 1.0 | 0.00 | 0.00 | 0.00 | 1 | 926.7 |
| 20260506081708 | 52 | 90 | 0.0 | 1.0 | 0.00 | 0.00 | 0.00 | 1 | 926.6 |
| 20260506081510 | 52 | 90 | 0.0 | 1.0 | 0.00 | 0.00 | 0.00 | 1 | 926.6 |
| 20260506081308 | 53 | 135 | 0.0 | 1.0 | 0.00 | 0.00 | 0.00 | 1 | 926.5 |
| 20260506081108 | 53 | 90 | 0.0 | 1.0 | 0.00 | 0.00 | 0.00 | 1 | 926.5 |
| 20260506080908 | 53 | 90 | 0.0 | 1.0 | 0.00 | 0.00 | 0.00 | 1 | 926.5 |
| 20260506080708 | 53 | 90 | 0.0 | 1.0 | 0.00 | 0.00 | 0.00 | 1 | 926.6 |
| 20260506080510 | 53 | 90 | 0.0 | 0.0 | 0.00 | 0.00 | 0.00 | 1 | 926.5 |
| 20260506080309 | 53 | 90 | 0.0 | 0.0 | 0.00 | 0.00 | 0.00 | 1 | 926.5 |
| 20260506080108 | 53 | 90 | 0.0 | 1.0 | 0.00 | 0.00 | 0.00 | 1 | 926.5 |
| 20260506073510 | 54 | 225 | 0.0 | 0.0 | 0.00 | 0.00 | 0.00 | 1 | 926.5 |
| 20260506073308 | 54 | 135 | 0.0 | 0.0 | 0.00 | 0.00 | 0.00 | 1 | 926.5 |
| 20260506073108 | 54 | 135 | 0.0 | 0.0 | 0.00 | 0.00 | 0.00 | 1 | 926.4 |
| 20260506072908 | 54 | 135 | 0.0 | 0.0 | 0.00 | 0.00 | 0.00 | 1 | 926.3 |
| 20260506072708 | 55 | 135 | 0.0 | 1.0 | 0.00 | 0.00 | 0.00 | 1 | 926.3 |
| 20260506072510 | 55 | 0 | 0.0 | 1.0 | 0.00 | 0.00 | 0.00 | 1 | 926.3 |
| 20260506072308 | 55 | 90 | 0.0 | 1.0 | 0.00 | 0.00 | 0.00 | 1 | 926.2 |
| 20260506072109 | 55 | 90 | 0.0 | 1.0 | 0.00 | 0.00 | 0.00 | 1 | 926.3 |
| 20260506071908 | 55 | 90 | 0.0 | 1.0 | 0.00 | 0.00 | 0.00 | 1 | 926.2 |
| 20260506071708 | 55 | 45 | 0.0 | 0.0 | 0.00 | 0.00 | 0.00 | 1 | 926.2 |
| 20260506071510 | 55 | 90 | 0.0 | 0.0 | 0.00 | 0.00 | 0.00 | 1 | 926.2 |
| 20260506071308 | 55 | 90 | 0.0 | 0.0 | 0.00 | 0.00 | 0.00 | 1 | 926.3 |
| 20260506071108 | 55 | 90 | 0.0 | 0.0 | 0.00 | 0.00 | 0.00 | 1 | 926.4 |
| 20260506070908 | 55 | 135 | 0.0 | 1.0 | 0.00 | 0.00 | 0.00 | 1 | 926.5 |
| 20260506070708 | 56 | 180 | 0.0 | 1.0 | 0.00 | 0.00 | 0.00 | 1 | 926.5 |
| 20260506070510 | 56 | 90 | 0.0 | 1.0 | 0.00 | 0.00 | 0.00 | 1 | 926.5 |
| 20260506070308 | 56 | 90 | 0.0 | 1.0 | 0.00 | 0.00 | 0.00 | 1 | 926.5 |
| 20260506070108 | 56 | 90 | 0.0 | 1.0 | 0.00 | 0.00 | 0.00 | 1 | 926.4 |
| 20260506062510 | 57 | 180 | 0.0 | 1.0 | 0.00 | 0.00 | 0.00 | 1 | 926.8 |
| 20260506062308 | 57 | 180 | 0.0 | 1.0 | 0.00 | 0.00 | 0.00 | 1 | 926.9 |
| 20260506062108 | 57 | 45 | 0.0 | 1.0 | 0.00 | 0.00 | 0.00 | 1 | 926.8 |
| 20260506061908 | 57 | 0 | 0.0 | 2.0 | 0.00 | 0.00 | 0.00 | 1 | 926.9 |
| 20260506061708 | 56 | 45 | 0.0 | 2.0 | 0.00 | 0.00 | 0.00 | 1 | 926.9 |
| 20260506061510 | 56 | 90 | 0.0 | 2.0 | 0.00 | 0.00 | 0.00 | 1 | 926.8 |
| 20260506061308 | 57 | 45 | 0.0 | 2.0 | 0.00 | 0.00 | 0.00 | 1 | 927.0 |
| 20260506061108 | 56 | 0 | 0.0 | 2.0 | 0.00 | 0.00 | 0.00 | 1 | 926.8 |
| 20260506060908 | 57 | 135 | 0.0 | 2.0 | 0.00 | 0.00 | 0.00 | 1 | 926.9 |
| 20260506060708 | 57 | 90 | 0.0 | 1.0 | 0.00 | 0.00 | 0.00 | 1 | 927.0 |
| 20260506060510 | 57 | 90 | 0.0 | 1.0 | 0.00 | 0.00 | 0.00 | 1 | 927.0 |
| 20260506060308 | 57 | 45 | 0.0 | 1.0 | 0.00 | 0.00 | 0.00 | 1 | 927.0 |
| 20260506060108 | 57 | 45 | 0.0 | 1.0 | 0.00 | 0.00 | 0.00 | 1 | 927.1 |
| 20260506051308 | 57 | 90 | 0.0 | 1.0 | 0.00 | 0.00 | 0.00 | 1 | 927.3 |
| 20260506051108 | 57 | 90 | 0.0 | 1.0 | 0.00 | 0.00 | 0.00 | 1 | 927.3 |
| 20260506050909 | 57 | 135 | 0.0 | 1.0 | 0.00 | 0.00 | 0.00 | 1 | 927.3 |
| 20260506050709 | 57 | 45 | 0.0 | 0.0 | 0.00 | 0.00 | 0.00 | 1 | 927.3 |
| 20260506050510 | 57 | 135 | 0.0 | 0.0 | 0.00 | 0.00 | 0.00 | 1 | 927.3 |
| 20260506050308 | 57 | 135 | 0.0 | 0.0 | 0.00 | 0.00 | 0.00 | 1 | 927.4 |
| 20260506050108 | 57 | 135 | 0.0 | 0.0 | 0.00 | 0.00 | 0.00 | 1 | 927.4 |
| 20260506045108 | 58 | 45 | 0.0 | 1.0 | 0.00 | 0.00 | 0.00 | 1 | 927.4 |
| 20260506044908 | 58 | 45 | 0.0 | 1.0 | 0.00 | 0.00 | 0.00 | 1 | 927.4 |
| 20260506044709 | 58 | 45 | 0.0 | 1.0 | 0.00 | 0.00 | 0.00 | 1 | 927.4 |
| 20260506044510 | 58 | 45 | 0.0 | 1.0 | 0.00 | 0.00 | 0.00 | 1 | 927.4 |
| 20260506044309 | 58 | 90 | 0.0 | 1.0 | 0.00 | 0.00 | 0.00 | 1 | 927.4 |
| 20260506044108 | 58 | 90 | 0.0 | 1.0 | 0.00 | 0.00 | 0.00 | 1 | 927.3 |
| 20260506043908 | 58 | 45 | 0.0 | 1.0 | 0.00 | 0.00 | 0.00 | 1 | 927.4 |
| 20260506043708 | 58 | 45 | 0.0 | 0.0 | 0.00 | 0.00 | 0.00 | 1 | 927.5 |
| 20260506043510 | 58 | 45 | 0.0 | 0.0 | 0.00 | 0.00 | 0.00 | 1 | 927.5 |
| 20260506043308 | 58 | 0 | 0.0 | 0.0 | 0.00 | 0.00 | 0.00 | 1 | 927.5 |
| 20260506043108 | 58 | 45 | 0.0 | 0.0 | 0.00 | 0.00 | 0.00 | 1 | 927.6 |
| 20260506042908 | 58 | 0 | 0.0 | 0.0 | 0.00 | 0.00 | 0.00 | 1 | 927.6 |
| 20260506042708 | 59 | 180 | 0.0 | 0.0 | 0.00 | 0.00 | 0.00 | 1 | 927.5 |
| 20260506042510 | 59 | 45 | 0.0 | 0.0 | 0.00 | 0.00 | 0.00 | 1 | 927.5 |
| 20260506042309 | 59 | 45 | 0.0 | 0.0 | 0.00 | 0.00 | 0.00 | 1 | 927.5 |
| 20260506042109 | 59 | 45 | 0.0 | 0.0 | 0.00 | 0.00 | 0.00 | 1 | 927.5 |
| 20260506041909 | 59 | 0 | 0.0 | 0.0 | 0.00 | 0.00 | 0.00 | 1 | 927.6 |
| 20260506041708 | 59 | 225 | 0.0 | 0.0 | 0.00 | 0.00 | 0.00 | 1 | 927.5 |
| 20260506041510 | 59 | 225 | 0.0 | 0.0 | 0.00 | 0.00 | 0.00 | 1 | 927.6 |
| 20260506041308 | 58 | 225 | 0.0 | 0.0 | 0.00 | 0.00 | 0.00 | 1 | 927.5 |
| 20260506041108 | 58 | 180 | 0.0 | 0.0 | 0.00 | 0.00 | 0.00 | 1 | 927.5 |
| 20260506040908 | 59 | 135 | 0.0 | 0.0 | 0.00 | 0.00 | 0.00 | 1 | 927.5 |
| 20260506040708 | 59 | 135 | 0.0 | 0.0 | 0.00 | 0.00 | 0.00 | 1 | 927.4 |
| 20260506040510 | 59 | 135 | 0.0 | 0.0 | 0.00 | 0.00 | 0.00 | 1 | 927.3 |
| 20260506040109 | 59 | 135 | 0.0 | 0.0 | 0.00 | 0.00 | 0.00 | 1 | 927.3 |
| 20260506035909 | 59 | 135 | 0.0 | 0.0 | 0.00 | 0.00 | 0.00 | 1 | 927.3 |
| 20260506035708 | 59 | 135 | 0.0 | 0.0 | 0.00 | 0.00 | 0.00 | 1 | 927.3 |
| 20260506035510 | 59 | 45 | 0.0 | 0.0 | 0.00 | 0.00 | 0.00 | 1 | 927.3 |
| 20260506035308 | 60 | 45 | 0.0 | 0.0 | 0.00 | 0.00 | 0.00 | 99 | 927.4 |
| 20260506035108 | 59 | 45 | 0.0 | 0.0 | 0.00 | 0.00 | 0.00 | 99 | 927.3 |
| 20260506034908 | 60 | 0 | 0.0 | 0.0 | 0.00 | 0.00 | 0.00 | 1 | 927.3 |
| 20260506034708 | 60 | 45 | 0.0 | 0.0 | 0.00 | 0.00 | 0.00 | 99 | 927.3 |
| 20260506034510 | 60 | 90 | 0.0 | 1.0 | 0.00 | 0.00 | 0.00 | 99 | 927.2 |
| 20260506034308 | 60 | 90 | 0.0 | 1.0 | 0.00 | 0.00 | 0.00 | 99 | 927.3 |
| 20260506034108 | 60 | 90 | 0.0 | 1.0 | 0.00 | 0.00 | 0.00 | 1 | 927.3 |
| 20260506033908 | 60 | 90 | 0.0 | 1.0 | 0.00 | 0.00 | 0.00 | 1 | 927.3 |
| 20260506033709 | 60 | 90 | 0.0 | 1.0 | 0.00 | 0.00 | 0.00 | 1 | 927.3 |
| 20260506033510 | 59 | 90 | 0.0 | 1.0 | 0.00 | 0.00 | 0.00 | 1 | 927.3 |
| 20260506033308 | 59 | 45 | 0.0 | 1.0 | 0.00 | 0.00 | 0.00 | 1 | 927.2 |
| 20260506033108 | 60 | 90 | 0.0 | 1.0 | 0.00 | 0.00 | 0.00 | 99 | 927.3 |
| 20260506032908 | 60 | 90 | 0.0 | 1.0 | 0.00 | 0.00 | 0.00 | 99 | 927.3 |
| 20260506032510 | 60 | 45 | 0.0 | 0.0 | 0.00 | 0.00 | 0.00 | 99 | 927.3 |
| 20260506032308 | 60 | 90 | 0.0 | 0.0 | 0.00 | 0.00 | 0.00 | 99 | 927.2 |
| 20260506032108 | 60 | 90 | 0.0 | 0.0 | 0.00 | 0.00 | 0.00 | 99 | 927.2 |
| 20260506031908 | 60 | 225 | 0.0 | 0.0 | 0.00 | 0.00 | 0.00 | 99 | 927.3 |
| 20260506031708 | 60 | 225 | 0.0 | 0.0 | 0.00 | 0.00 | 0.00 | 99 | 927.3 |
| 20260506031510 | 60 | 225 | 0.0 | 0.0 | 0.00 | 0.00 | 0.00 | 99 | 927.3 |
| 20260506031309 | 60 | 90 | 0.0 | 0.0 | 0.00 | 0.00 | 0.00 | 99 | 927.2 |
| 20260506031108 | 60 | 90 | 0.0 | 0.0 | 0.00 | 0.00 | 0.00 | 99 | 927.2 |
| 20260506030908 | 60 | 90 | 0.0 | 0.0 | 0.00 | 0.00 | 0.00 | 99 | 927.2 |
| 20260506030708 | 60 | 90 | 0.0 | 0.0 | 0.00 | 0.00 | 0.00 | 99 | 927.2 |
| 20260506030510 | 60 | 90 | 0.0 | 0.0 | 0.00 | 0.00 | 0.00 | 1 | 927.2 |
| 20260506030308 | 60 | 135 | 0.0 | 0.0 | 0.00 | 0.00 | 0.00 | 99 | 927.3 |
| 20260506030108 | 60 | 135 | 0.0 | 1.0 | 0.00 | 0.00 | 0.00 | 1 | 927.3 |
| 20260506025908 | 60 | 135 | 0.0 | 2.0 | 0.00 | 0.00 | 0.00 | 99 | 927.3 |
| 20260506025709 | 61 | 45 | 0.0 | 3.0 | 0.00 | 0.00 | 0.00 | 99 | 927.2 |
| 20260506025510 | 60 | 45 | 0.0 | 3.0 | 0.00 | 0.00 | 0.00 | 99 | 927.2 |
| 20260506025308 | 60 | 225 | 0.0 | 3.0 | 0.00 | 0.00 | 0.00 | 1 | 927.2 |
| 20260506025109 | 60 | 225 | 0.0 | 3.0 | 0.00 | 0.00 | 0.00 | 1 | 927.3 |
| 20260506024909 | 60 | 225 | 1.0 | 3.0 | 0.00 | 0.00 | 0.00 | 1 | 927.3 |
| 20260506024708 | 60 | 0 | 0.0 | 3.0 | 0.00 | 0.00 | 0.00 | 99 | 927.3 |
| 20260506024510 | 60 | 225 | 0.0 | 3.0 | 0.00 | 0.00 | 0.00 | 99 | 927.3 |
| 20260506024308 | 60 | 315 | 1.0 | 3.0 | 0.00 | 0.00 | 0.00 | 1 | 927.3 |
| 20260506024109 | 60 | 225 | 1.0 | 3.0 | 0.00 | 0.00 | 0.00 | 1 | 927.3 |
| 20260506023908 | 60 | 225 | 1.0 | 4.0 | 0.00 | 0.00 | 0.00 | 99 | 927.2 |
| 20260506023708 | 60 | 0 | 1.0 | 4.0 | 0.00 | 0.00 | 0.00 | 99 | 927.2 |
| 20260506023510 | 60 | 0 | 1.0 | 4.0 | 0.00 | 0.00 | 0.00 | 99 | 927.3 |
| 20260506023308 | 60 | 0 | 1.0 | 4.0 | 0.00 | 0.00 | 0.00 | 99 | 927.3 |
| 20260506023108 | 60 | 0 | 1.0 | 4.0 | 0.00 | 0.00 | 0.00 | 99 | 927.3 |
| 20260506022908 | 60 | 225 | 1.0 | 4.0 | 0.00 | 0.00 | 0.00 | 99 | 927.3 |
| 20260506022709 | 61 | 315 | 2.0 | 4.0 | 0.00 | 0.00 | 0.00 | 99 | 927.4 |
| 20260506022510 | 61 | 0 | 0.0 | 2.0 | 0.00 | 0.00 | 0.00 | 99 | 927.4 |
| 20260506022308 | 61 | 225 | 0.0 | 2.0 | 0.00 | 0.00 | 0.00 | 99 | 927.4 |
| 20260506022108 | 61 | 0 | 0.0 | 2.0 | 0.00 | 0.00 | 0.00 | 99 | 927.4 |
| 20260506021908 | 61 | 45 | 0.0 | 2.0 | 0.00 | 0.00 | 0.00 | 99 | 927.4 |
| 20260506021708 | 61 | 45 | 0.0 | 3.0 | 0.00 | 0.00 | 0.00 | 99 | 927.4 |
| 20260506021510 | 61 | 45 | 0.0 | 3.0 | 0.00 | 0.00 | 0.00 | 99 | 927.4 |
| 20260506021309 | 62 | 90 | 0.0 | 3.0 | 0.00 | 0.00 | 0.00 | 99 | 927.4 |
| 20260506021108 | 62 | 45 | 0.0 | 3.0 | 0.00 | 0.00 | 0.00 | 99 | 927.5 |
| 20260506020309 | 62 | 180 | 0.0 | 2.0 | 0.00 | 0.00 | 0.00 | 99 | 927.6 |
| 20260506020109 | 62 | 225 | 0.0 | 1.0 | 0.00 | 0.00 | 0.00 | 99 | 927.6 |
| 20260506015908 | 62 | 225 | 0.0 | 1.0 | 0.00 | 0.00 | 0.00 | 99 | 927.6 |
| 20260506015708 | 62 | 225 | 0.0 | 1.0 | 0.00 | 0.00 | 0.00 | 99 | 927.6 |
| 20260506015510 | 62 | 225 | 0.0 | 1.0 | 0.00 | 0.00 | 0.00 | 99 | 927.5 |
| 20260506015308 | 62 | 225 | 0.0 | 1.0 | 0.00 | 0.00 | 0.00 | 99 | 927.6 |
| 20260506015108 | 62 | 0 | 0.0 | 1.0 | 0.00 | 0.00 | 0.00 | 99 | 927.6 |
| 20260506014908 | 62 | 225 | 0.0 | 1.0 | 0.00 | 0.00 | 0.00 | 99 | 927.6 |
| 20260506014708 | 63 | 225 | 0.0 | 1.0 | 0.00 | 0.00 | 0.00 | 99 | 927.6 |
| 20260506014510 | 63 | 225 | 0.0 | 1.0 | 0.00 | 0.00 | 0.00 | 99 | 927.5 |
| 20260506014308 | 63 | 225 | 0.0 | 1.0 | 0.00 | 0.00 | 0.00 | 99 | 927.5 |
| 20260506014109 | 63 | 45 | 0.0 | 1.0 | 0.00 | 0.00 | 0.00 | 99 | 927.5 |
| 20260506013909 | 63 | 225 | 0.0 | 1.0 | 0.00 | 0.00 | 0.00 | 99 | 927.4 |
| 20260506013709 | 62 | 180 | 0.0 | 1.0 | 0.00 | 0.00 | 0.00 | 99 | 927.4 |
| 20260506013510 | 62 | 225 | 0.0 | 1.0 | 0.00 | 0.00 | 0.00 | 99 | 927.4 |
| 20260506013308 | 62 | 180 | 0.0 | 2.0 | 0.00 | 0.00 | 0.00 | 99 | 927.4 |
| 20260506013109 | 62 | 45 | 0.0 | 2.0 | 0.00 | 0.00 | 0.00 | 99 | 927.5 |
| 20260506012908 | 63 | 315 | 0.0 | 3.0 | 0.00 | 0.00 | 0.00 | 99 | 927.4 |
| 20260506012708 | 62 | 0 | 0.0 | 3.0 | 0.00 | 0.00 | 0.00 | 99 | 927.4 |
| 20260506012510 | 62 | 315 | 0.0 | 3.0 | 0.00 | 0.00 | 0.00 | 99 | 927.4 |
| 20260506012308 | 62 | 0 | 0.0 | 3.0 | 0.00 | 0.00 | 0.00 | 99 | 927.4 |
| 20260506012108 | 62 | 0 | 1.0 | 3.0 | 0.00 | 0.00 | 0.00 | 99 | 927.4 |
| 20260506011908 | 62 | 0 | 1.0 | 3.0 | 0.00 | 0.00 | 0.00 | 99 | 927.4 |
| 20260506011709 | 63 | 225 | 1.0 | 3.0 | 0.00 | 0.00 | 0.00 | 99 | 927.4 |
| 20260506011510 | 63 | 0 | 1.0 | 3.0 | 0.00 | 0.00 | 0.00 | 99 | 927.4 |
| 20260506011308 | 63 | 225 | 1.0 | 3.0 | 0.00 | 0.00 | 0.00 | 99 | 927.4 |
| 20260506011108 | 63 | 0 | 0.0 | 2.0 | 0.00 | 0.00 | 0.00 | 99 | 927.3 |
| 20260506010908 | 64 | 0 | 0.0 | 2.0 | 0.00 | 0.00 | 0.00 | 99 | 927.3 |
| 20260506010709 | 64 | 0 | 0.0 | 2.0 | 0.00 | 0.00 | 0.00 | 99 | 927.3 |
| 20260506010510 | 64 | 0 | 0.0 | 2.0 | 0.00 | 0.00 | 0.00 | 99 | 927.3 |
| 20260506010308 | 64 | 180 | 0.0 | 1.0 | 0.00 | 0.00 | 0.00 | 99 | 927.4 |
| 20260506010108 | 64 | 45 | 0.0 | 0.0 | 0.00 | 0.00 | 0.00 | 99 | 927.3 |
| 20260506005908 | 64 | 45 | 0.0 | 0.0 | 0.00 | 0.00 | 0.00 | 99 | 927.4 |
| 20260506005708 | 64 | 90 | 0.0 | 0.0 | 0.00 | 0.00 | 0.00 | 99 | 927.5 |
| 20260506005510 | 64 | 45 | 0.0 | 0.0 | 0.00 | 0.00 | 0.00 | 99 | 927.6 |
| 20260506005309 | 64 | 45 | 0.0 | 0.0 | 0.00 | 0.00 | 0.00 | 99 | 927.6 |
| 20260506005109 | 65 | 45 | 0.0 | 0.0 | 0.00 | 0.00 | 0.00 | 99 | 927.7 |
| 20260506004909 | 65 | 0 | 0.0 | 0.0 | 0.00 | 0.00 | 0.00 | 99 | 927.7 |
| 20260506004708 | 65 | 0 | 0.0 | 0.0 | 0.00 | 0.00 | 0.00 | 99 | 927.6 |
| 20260506004511 | 65 | 45 | 0.0 | 0.0 | 0.00 | 0.00 | 0.00 | 99 | 927.5 |
| 20260506004308 | 65 | 90 | 0.0 | 0.0 | 0.00 | 0.00 | 0.00 | 99 | 927.5 |
| 20260506004108 | 65 | 90 | 0.0 | 0.0 | 0.00 | 0.00 | 0.00 | 99 | 927.5 |
| 20260506003708 | 65 | 45 | 0.0 | 0.0 | 0.00 | 0.00 | 0.00 | 99 | 927.4 |
| 20260506003510 | 65 | 90 | 0.0 | 0.0 | 0.00 | 0.00 | 0.00 | 99 | 927.3 |
| 20260506003308 | 65 | 90 | 0.0 | 0.0 | 0.00 | 0.00 | 0.00 | 99 | 927.3 |
| 20260506003109 | 65 | 90 | 0.0 | 0.0 | 0.00 | 0.00 | 0.00 | 99 | 927.2 |
| 20260506002909 | 65 | 135 | 0.0 | 0.0 | 0.00 | 0.00 | 0.00 | 99 | 927.1 |
| 20260506002709 | 65 | 180 | 0.0 | 0.0 | 0.00 | 0.00 | 0.00 | 99 | 927.1 |
| 20260506002510 | 66 | 45 | 0.0 | 1.0 | 0.00 | 0.00 | 0.00 | 99 | 927.1 |
| 20260506002308 | 65 | 45 | 0.0 | 1.0 | 0.00 | 0.00 | 0.00 | 99 | 927.1 |
| 20260506001908 | 65 | 180 | 0.0 | 2.0 | 0.00 | 0.00 | 0.00 | 99 | 926.8 |
| 20260506001709 | 64 | 180 | 0.0 | 2.0 | 0.00 | 0.00 | 0.00 | 99 | 926.7 |
| 20260506001510 | 64 | 180 | 0.0 | 2.0 | 0.00 | 0.00 | 0.00 | 99 | 926.8 |
| 20260506001308 | 64 | 135 | 0.0 | 2.0 | 0.00 | 0.00 | 0.00 | 99 | 926.7 |
| 20260506001108 | 64 | 135 | 1.0 | 2.0 | 0.00 | 0.00 | 0.00 | 99 | 926.7 |
| 20260506000908 | 64 | 135 | 0.0 | 2.0 | 0.00 | 0.00 | 0.00 | 99 | 926.8 |
| 20260506000709 | 65 | 135 | 0.0 | 2.0 | 0.00 | 0.00 | 0.00 | 99 | 926.8 |
| 20260506000510 | 65 | 180 | 0.0 | 1.0 | 0.00 | 0.00 | 0.00 | 99 | 926.9 |
| 20260506000309 | 66 | 45 | 0.0 | 1.0 | 0.00 | 0.00 | 0.00 | 99 | 926.9 |
| 20260506000108 | 66 | 225 | 0.0 | 1.0 | 0.00 | 0.00 | 0.00 | 99 | 926.9 |
| 20260505235908 | 66 | 0 | 0.0 | 1.0 | 0.00 | 0.00 | 0.00 | 99 | 926.9 |
| 20260505235708 | 66 | 225 | 0.0 | 0.0 | 0.00 | 0.00 | 0.00 | 99 | 926.8 |
| 20260505235510 | 66 | 225 | 0.0 | 0.0 | 0.00 | 0.00 | 0.00 | 99 | 926.8 |
| 20260505235309 | 66 | 0 | 0.0 | 0.0 | 0.00 | 0.00 | 0.00 | 99 | 926.8 |
| 20260505235109 | 67 | 45 | 0.0 | 0.0 | 0.00 | 0.00 | 0.00 | 99 | 926.8 |
| 20260505234908 | 67 | 45 | 0.0 | 0.0 | 0.00 | 0.00 | 0.00 | 99 | 926.7 |
| 20260505234708 | 66 | 45 | 0.0 | 0.0 | 0.00 | 0.00 | 0.00 | 99 | 926.7 |
| 20260505234510 | 66 | 45 | 0.0 | 0.0 | 0.00 | 0.00 | 0.00 | 99 | 926.7 |
| 20260505234309 | 66 | 180 | 0.0 | 1.0 | 0.00 | 0.00 | 0.00 | 99 | 926.7 |
| 20260505234109 | 66 | 180 | 0.0 | 1.0 | 0.00 | 0.00 | 0.00 | 99 | 926.7 |
| 20260505233909 | 67 | 225 | 0.0 | 1.0 | 0.00 | 0.00 | 0.00 | 99 | 926.8 |
| 20260505233709 | 67 | 225 | 0.0 | 1.0 | 0.00 | 0.00 | 0.00 | 99 | 926.7 |
| 20260505233510 | 66 | 225 | 0.0 | 1.0 | 0.00 | 0.00 | 0.00 | 99 | 926.7 |
| 20260505233308 | 67 | 225 | 0.0 | 1.0 | 0.00 | 0.00 | 0.00 | 99 | 926.7 |
| 20260505233108 | 66 | 45 | 0.0 | 1.0 | 0.00 | 0.00 | 0.00 | 99 | 926.7 |
| 20260505232909 | 66 | 225 | 0.0 | 1.0 | 0.00 | 0.00 | 0.00 | 99 | 926.8 |
| 20260505232708 | 66 | 225 | 0.0 | 1.0 | 0.00 | 0.00 | 0.00 | 99 | 926.8 |
| 20260505232510 | 66 | 0 | 0.0 | 1.0 | 0.00 | 0.00 | 0.00 | 99 | 926.8 |
| 20260505232308 | 66 | 90 | 0.0 | 1.0 | 0.00 | 0.00 | 0.00 | 99 | 926.7 |
| 20260505232109 | 66 | 45 | 0.0 | 2.0 | 0.00 | 0.00 | 0.00 | 99 | 926.6 |
| 20260505231908 | 66 | 135 | 0.0 | 3.0 | 0.00 | 0.00 | 0.00 | 99 | 926.4 |
| 20260505231709 | 65 | 45 | 0.0 | 3.0 | 0.00 | 0.00 | 0.00 | 99 | 926.4 |
| 20260505231510 | 65 | 90 | 0.0 | 3.0 | 0.00 | 0.00 | 0.00 | 99 | 926.4 |
| 20260505231308 | 65 | 135 | 0.0 | 3.0 | 0.00 | 0.00 | 0.00 | 99 | 926.4 |
| 20260505231109 | 64 | 225 | 1.0 | 3.0 | 0.00 | 0.00 | 0.00 | 99 | 926.4 |
| 20260505230909 | 64 | 135 | 1.0 | 3.0 | 0.00 | 0.00 | 0.00 | 99 | 926.4 |
| 20260505230708 | 64 | 135 | 1.0 | 3.0 | 0.00 | 0.00 | 0.00 | 99 | 926.5 |
| 20260505230510 | 65 | 135 | 1.0 | 3.0 | 0.00 | 0.00 | 0.00 | 99 | 926.5 |
| 20260505230308 | 65 | 225 | 1.0 | 3.0 | 0.00 | 0.00 | 0.00 | 99 | 926.4 |
| 20260505230109 | 65 | 0 | 0.0 | 3.0 | 0.00 | 0.00 | 0.00 | 99 | 926.4 |
| 20260505225908 | 65 | 135 | 0.0 | 3.0 | 0.00 | 0.00 | 0.00 | 99 | 926.4 |
| 20260505225709 | 65 | 225 | 1.0 | 3.0 | 0.00 | 0.00 | 0.00 | 99 | 926.4 |
| 20260505225510 | 65 | 135 | 0.0 | 3.0 | 0.00 | 0.00 | 0.00 | 99 | 926.3 |
| 20260505225309 | 65 | 135 | 1.0 | 3.0 | 0.00 | 0.00 | 0.00 | 99 | 926.2 |
| 20260505225109 | 65 | 135 | 1.0 | 3.0 | 0.00 | 0.00 | 0.00 | 99 | 926.2 |
| 20260505224908 | 65 | 90 | 1.0 | 4.0 | 0.00 | 0.00 | 0.00 | 99 | 926.2 |
| 20260505224709 | 65 | 45 | 2.0 | 4.0 | 0.00 | 0.00 | 0.00 | 99 | 926.2 |
| 20260505224511 | 65 | 225 | 1.0 | 4.0 | 0.00 | 0.00 | 0.00 | 99 | 926.1 |
| 20260505224309 | 65 | 135 | 1.0 | 4.0 | 0.00 | 0.00 | 0.00 | 99 | 926.1 |
| 20260505224108 | 65 | 225 | 1.0 | 4.0 | 0.00 | 0.00 | 0.00 | 99 | 926.1 |
| 20260505223909 | 65 | 180 | 1.0 | 3.0 | 0.00 | 0.00 | 0.00 | 99 | 926.1 |
| 20260505223709 | 66 | 315 | 1.0 | 3.0 | 0.00 | 0.00 | 0.00 | 99 | 926.1 |
| 20260505223510 | 66 | 225 | 1.0 | 3.0 | 0.00 | 0.00 | 0.00 | 99 | 926.1 |
| 20260505223309 | 66 | 225 | 0.0 | 3.0 | 0.00 | 0.00 | 0.00 | 99 | 926.1 |
| 20260505223108 | 66 | 225 | 1.0 | 3.0 | 0.00 | 0.00 | 0.00 | 99 | 926.2 |
| 20260505222909 | 67 | 180 | 0.0 | 2.0 | 0.00 | 0.00 | 0.00 | 99 | 926.2 |
| 20260505222709 | 67 | 135 | 0.0 | 2.0 | 0.00 | 0.00 | 0.00 | 99 | 926.2 |
| 20260505222510 | 67 | 180 | 0.0 | 3.0 | 0.00 | 0.00 | 0.00 | 99 | 926.2 |
| 20260505222308 | 67 | 180 | 0.0 | 3.0 | 0.00 | 0.00 | 0.00 | 99 | 926.3 |
| 20260505222109 | 67 | 135 | 0.0 | 3.0 | 0.00 | 0.00 | 0.00 | 99 | 926.3 |
| 20260505221908 | 67 | 135 | 0.0 | 4.0 | 0.00 | 0.00 | 0.00 | 99 | 926.2 |
| 20260505221709 | 66 | 180 | 0.0 | 5.0 | 0.00 | 0.00 | 0.00 | 99 | 926.2 |
| 20260505221510 | 66 | 180 | 1.0 | 5.0 | 0.00 | 0.00 | 0.00 | 99 | 926.1 |
| 20260505221309 | 66 | 180 | 2.0 | 5.0 | 0.00 | 0.00 | 0.00 | 99 | 926.1 |
| 20260505221109 | 66 | 180 | 2.0 | 5.0 | 0.00 | 0.00 | 0.00 | 99 | 926.1 |
| 20260505220909 | 66 | 180 | 2.0 | 5.0 | 0.00 | 0.00 | 0.00 | 99 | 926.1 |
| 20260505220708 | 65 | 225 | 1.0 | 3.0 | 0.00 | 0.00 | 0.00 | 99 | 926.1 |
| 20260505153204 | 77 | 90 | 0.0 | 1.0 | 0.00 | 0.00 | 0.00 | 99 | 926.5 |
| 20260505153004 | 76 | 90 | 0.0 | 1.0 | 0.00 | 0.00 | 0.00 | 99 | 926.7 |
| 20260505152804 | 77 | 90 | 0.0 | 1.0 | 0.00 | 0.00 | 0.00 | 99 | 926.7 |
| 20260505152605 | 77 | 180 | 0.0 | 1.0 | 0.00 | 0.00 | 0.00 | 99 | 926.7 |
| 20260505152404 | 76 | 225 | 0.0 | 1.0 | 0.00 | 0.00 | 0.00 | 99 | 926.7 |
| 20260505152204 | 76 | 180 | 0.0 | 1.0 | 0.00 | 0.00 | 0.00 | 99 | 926.7 |
| 20260505152004 | 75 | 180 | 0.0 | 1.0 | 0.00 | 0.00 | 0.00 | 99 | 926.8 |
| 20260505151804 | 75 | 45 | 0.0 | 1.0 | 0.00 | 0.00 | 0.00 | 99 | 926.7 |
| 20260505151605 | 74 | 90 | 0.0 | 1.0 | 0.00 | 0.00 | 0.00 | 99 | 926.7 |
| 20260505151404 | 74 | 135 | 0.0 | 1.0 | 0.00 | 0.00 | 0.00 | 99 | 926.7 |
| 20260505151204 | 74 | 315 | 0.0 | 1.0 | 0.00 | 0.00 | 0.00 | 99 | 926.8 |
| 20260505151004 | 74 | 135 | 0.0 | 1.0 | 0.00 | 0.00 | 0.00 | 99 | 926.9 |
| 20260505150805 | 74 | 135 | 0.0 | 1.0 | 0.00 | 0.00 | 0.00 | 99 | 926.9 |
| 20260505150605 | 74 | 135 | 0.0 | 1.0 | 0.00 | 0.00 | 0.00 | 99 | 926.9 |
| 20260505150404 | 75 | 135 | 0.0 | 1.0 | 0.00 | 0.00 | 0.00 | 99 | 927.0 |
| 20260505150204 | 75 | 225 | 0.0 | 1.0 | 0.00 | 0.00 | 0.00 | 99 | 927.0 |
| 20260505140605 | 68 | 0 | 0.0 | 2.0 | 0.00 | 0.00 | 0.00 | 99 | 927.5 |
| 20260505140404 | 68 | 0 | 0.0 | 2.0 | 0.00 | 0.00 | 0.00 | 99 | 927.5 |
| 20260505140204 | 68 | 0 | 0.0 | 2.0 | 0.00 | 0.00 | 0.00 | 99 | 927.5 |
| 20260505125004 | 59 | 180 | 0.0 | 1.0 | 0.00 | 0.00 | 0.00 | 99 | 928.8 |
| 20260505124804 | 59 | 180 | 0.0 | 1.0 | 0.00 | 0.00 | 0.00 | 99 | 928.7 |
| 20260505124605 | 58 | 180 | 0.0 | 1.0 | 0.00 | 0.00 | 0.00 | 99 | 928.8 |
| 20260505124404 | 58 | 90 | 0.0 | 1.0 | 0.00 | 0.00 | 0.00 | 99 | 928.8 |
| 20260505124204 | 58 | 90 | 0.0 | 1.0 | 0.00 | 0.00 | 0.00 | 99 | 928.8 |
| 20260505124004 | 58 | 180 | 0.0 | 0.0 | 0.00 | 0.00 | 0.00 | 99 | 928.9 |
| 20260505123804 | 57 | 180 | 0.0 | 0.0 | 0.00 | 0.00 | 0.00 | 99 | 928.9 |
| 20260505123606 | 57 | 90 | 0.0 | 0.0 | 0.00 | 0.00 | 0.00 | 99 | 928.9 |
| 20260505123404 | 57 | 180 | 0.0 | 0.0 | 0.00 | 0.00 | 0.00 | 99 | 928.9 |
| 20260505123204 | 57 | 180 | 0.0 | 0.0 | 0.00 | 0.00 | 0.00 | 99 | 928.9 |
| 20260505123004 | 57 | 90 | 0.0 | 1.0 | 0.00 | 0.00 | 0.00 | 99 | 928.9 |
| 20260505122804 | 57 | 180 | 0.0 | 1.0 | 0.00 | 0.00 | 0.00 | 99 | 928.9 |
| 20260505122605 | 57 | 90 | 0.0 | 1.0 | 0.00 | 0.00 | 0.00 | 99 | 928.9 |
| 20260505122404 | 57 | 90 | 0.0 | 1.0 | 0.00 | 0.00 | 0.00 | 99 | 928.9 |
| 20260505122204 | 57 | 90 | 0.0 | 1.0 | 0.00 | 0.00 | 0.00 | 99 | 928.9 |
| 20260505122004 | 57 | 180 | 0.0 | 1.0 | 0.00 | 0.00 | 0.00 | 99 | 928.9 |
| 20260505121804 | 57 | 180 | 0.0 | 1.0 | 0.00 | 0.00 | 0.00 | 99 | 928.9 |
| 20260505121605 | 57 | 180 | 0.0 | 1.0 | 0.00 | 0.00 | 0.00 | 99 | 928.9 |
| 20260505121404 | 57 | 180 | 0.0 | 1.0 | 0.00 | 0.00 | 0.00 | 99 | 928.9 |
| 20260505121204 | 57 | 180 | 0.0 | 1.0 | 0.00 | 0.00 | 0.00 | 99 | 928.9 |
| 20260505121004 | 57 | 180 | 0.0 | 1.0 | 0.00 | 0.00 | 0.00 | 99 | 928.9 |
| 20260505120804 | 57 | 180 | 0.0 | 1.0 | 0.00 | 0.00 | 0.00 | 99 | 928.9 |
| 20260505120004 | 57 | 180 | 0.0 | 1.0 | 0.00 | 0.00 | 0.00 | 99 | 928.8 |
| 20260505115804 | 57 | 180 | 0.0 | 1.0 | 0.00 | 0.00 | 0.00 | 99 | 928.8 |
| 20260505115605 | 57 | 90 | 0.0 | 1.0 | 0.00 | 0.00 | 0.00 | 99 | 928.8 |
| 20260505115404 | 57 | 180 | 0.0 | 1.0 | 0.00 | 0.00 | 0.00 | 99 | 928.7 |
| 20260505115204 | 57 | 225 | 0.0 | 1.0 | 0.00 | 0.00 | 0.00 | 99 | 928.7 |
| 20260505115004 | 57 | 225 | 0.0 | 1.0 | 0.00 | 0.00 | 0.00 | 99 | 928.8 |
| 20260505114804 | 57 | 180 | 0.0 | 1.0 | 0.00 | 0.00 | 0.00 | 99 | 928.8 |
| 20260505114605 | 57 | 180 | 0.0 | 1.0 | 0.00 | 0.00 | 0.00 | 99 | 928.7 |
| 20260505114404 | 56 | 180 | 0.0 | 1.0 | 0.00 | 0.00 | 0.00 | 99 | 928.8 |